Weather in Lyudkovo

Russia / Kaluga Oblast     54°36′10″N   34°43′25″E
temp.,
°C
wind,
m/s
gust,
m/s
humid.,
%
clouds,
%
prec.,
mm/h
press.,
hPa
HPBL,
m
18 may, tue
tue1800:00+17se4148732 0.0 1005459
03:00+16ese4119396 0.0 1005290
06:00+16se310926 0.1 1005309
09:00+21se487698 0.3 1005569
12:00+24ese596257 0.0 10041265
15:00+25se6125356 0.0 10041963
18:00+22ese6136414 0.1 10031573
21:00+19se6137869 0.4 1002835
19 may, wed
wed1900:00+13ese389184 0.0 1003226
03:00+14se31091100 0.0 1003367
06:00+14se4109495 0.1 1004524
09:00+18sse587217 0.1 1005969
12:00+19se5766100 0.6 10051457
15:00+19sse5768100 1.9 10061352
18:00+18se3680100 1.0 1005473
21:00+14ese2294100 2.2 100538
20 may, thu
thu2000:00+14wsw1297100 1.4 100452
03:00+13nne369999 2.1 1003223
06:00+12ese51095100 0.9 1001641
09:00+11ese51095100 1.1 1001812
12:00+12se61194100 0.5 1001810
15:00+13sse3796100 3.8 1000555
18:00+10sw61196100 0.8 1004662
21:00+10wsw5997100 1.1 1007849
21 may, fri
fri2100:00+9w51196100 0.4 1009774
03:00+8wnw51196100 0.7 1011622
06:00+9wnw499480 0.0 1012652
09:00+12nw477316 0.0 1014885
12:00+16nw4552100 0.0 10141757
15:00+18wnw344353 0.0 10152081
18:00+17nw2355100 0.0 1015740
21:00+12wnw2480100 0.1 101758
22 may, sat
sat2200:00+10nw2379100 0.0 101761
03:00+9n2381100 0.0 101848
06:00+9nne238097 0.0 101988
09:00+15ene34607 0.0 1018491
12:00+18ese445430 0.1 10181594
15:00+18ese445519 0.1 10181742
18:00+16ese45660 0.1 1017946
21:00+11e25950 0.1 1017100